Year,Month,Day,Hour,Minute,Value (Times are PST for windgust in km/hr)
2013,10,26,00,00,4.80
2013,10,26,00,01,3.20
2013,10,26,00,02,4.80
2013,10,26,00,03,4.80
2013,10,26,00,04,4.80
2013,10,26,00,05,4.80
2013,10,26,00,06,6.40
2013,10,26,00,07,3.20
2013,10,26,00,08,1.60
2013,10,26,00,09,1.60
2013,10,26,00,10,4.80
2013,10,26,00,11,6.40
2013,10,26,00,12,6.40
2013,10,26,00,13,4.80
2013,10,26,00,14,4.80
2013,10,26,00,15,3.20
2013,10,26,00,16,3.20
2013,10,26,00,17,3.20
2013,10,26,00,18,3.20
2013,10,26,00,19,3.20
2013,10,26,00,20,3.20
2013,10,26,00,21,3.20
2013,10,26,00,22,3.20
2013,10,26,00,23,3.20
2013,10,26,00,24,1.60
2013,10,26,00,25,1.60
2013,10,26,00,26,1.60
2013,10,26,00,27,3.20
2013,10,26,00,28,4.80
2013,10,26,00,29,1.60
2013,10,26,00,30,3.20
2013,10,26,00,31,3.20
2013,10,26,00,32,4.80
2013,10,26,00,33,4.80
2013,10,26,00,34,3.20
2013,10,26,00,35,3.20
2013,10,26,00,36,3.20
2013,10,26,00,37,4.80
2013,10,26,00,38,3.20
2013,10,26,00,39,3.20
2013,10,26,00,40,3.20
2013,10,26,00,41,3.20
2013,10,26,00,42,3.20
2013,10,26,00,43,3.20
2013,10,26,00,44,1.60
2013,10,26,00,45,1.60
2013,10,26,00,46,1.60
2013,10,26,00,47,1.60
2013,10,26,00,48,3.20
2013,10,26,00,49,1.60
2013,10,26,00,50,3.20
2013,10,26,00,51,4.80
2013,10,26,00,52,1.60
2013,10,26,00,53,1.60
2013,10,26,00,54,3.20
2013,10,26,00,55,3.20
2013,10,26,00,56,1.60
2013,10,26,00,57,1.60
2013,10,26,00,58,6.40
2013,10,26,00,59,3.20
2013,10,26,01,00,3.20
2013,10,26,01,01,1.60
2013,10,26,01,02,4.80
2013,10,26,01,03,4.80
2013,10,26,01,04,3.20
2013,10,26,01,05,4.80
2013,10,26,01,06,3.20
2013,10,26,01,07,4.80
2013,10,26,01,08,1.60
2013,10,26,01,09,1.60
2013,10,26,01,10,1.60
2013,10,26,01,11,4.80
2013,10,26,01,12,3.20
2013,10,26,01,13,3.20
2013,10,26,01,14,1.60
2013,10,26,01,15,3.20
2013,10,26,01,16,1.60
2013,10,26,01,17,3.20
2013,10,26,01,18,1.60
2013,10,26,01,19,3.20
2013,10,26,01,20,1.60
2013,10,26,01,21,3.20
2013,10,26,01,22,1.60
2013,10,26,01,23,1.60
2013,10,26,01,24,3.20
2013,10,26,01,25,1.60
2013,10,26,01,26,3.20
2013,10,26,01,27,8.10
2013,10,26,01,28,6.40
2013,10,26,01,29,1.60
2013,10,26,01,30,1.60
2013,10,26,01,34,3.20
2013,10,26,01,35,6.40
2013,10,26,01,36,4.80
2013,10,26,01,37,3.20
2013,10,26,01,38,4.80
2013,10,26,01,39,3.20
2013,10,26,01,40,1.60
2013,10,26,01,41,3.20
2013,10,26,01,42,3.20
2013,10,26,01,43,3.20
2013,10,26,01,44,3.20
2013,10,26,01,45,1.60
2013,10,26,01,46,3.20
2013,10,26,01,47,3.20
2013,10,26,01,48,1.60
2013,10,26,01,49,4.80
2013,10,26,01,50,4.80
2013,10,26,01,51,4.80
2013,10,26,01,52,1.60
2013,10,26,01,53,3.20
2013,10,26,01,54,1.60
2013,10,26,01,55,1.60
2013,10,26,01,57,4.80
2013,10,26,01,58,4.80
2013,10,26,01,59,4.80
2013,10,26,02,00,3.20
2013,10,26,02,01,3.20
2013,10,26,02,02,1.60
2013,10,26,02,03,1.60
2013,10,26,02,07,3.20
2013,10,26,02,08,4.80
2013,10,26,02,09,4.80
2013,10,26,02,10,3.20
2013,10,26,02,11,4.80
2013,10,26,02,12,3.20
2013,10,26,02,13,1.60
2013,10,26,02,14,1.60
2013,10,26,02,15,4.80
2013,10,26,02,16,4.80
2013,10,26,02,17,3.20
2013,10,26,02,18,3.20
2013,10,26,02,19,3.20
2013,10,26,02,20,1.60
2013,10,26,02,24,4.80
2013,10,26,02,25,3.20
2013,10,26,02,26,4.80
2013,10,26,02,27,6.40
2013,10,26,02,28,4.80
2013,10,26,02,29,6.40
2013,10,26,02,30,3.20
2013,10,26,02,31,4.80
2013,10,26,02,32,8.10
2013,10,26,02,33,6.40
2013,10,26,02,34,4.80
2013,10,26,02,35,6.40
2013,10,26,02,36,6.40
2013,10,26,02,37,3.20
2013,10,26,02,38,9.60
2013,10,26,02,39,6.40
2013,10,26,02,40,4.80
2013,10,26,02,41,4.80
2013,10,26,02,42,6.40
2013,10,26,02,43,4.80
2013,10,26,02,44,4.80
2013,10,26,02,45,6.40
2013,10,26,02,46,6.40
2013,10,26,02,47,8.10
2013,10,26,02,48,6.40
2013,10,26,02,49,4.80
2013,10,26,02,50,3.20
2013,10,26,02,51,3.20
2013,10,26,02,52,1.60
2013,10,26,02,53,4.80
2013,10,26,02,54,3.20
2013,10,26,02,55,3.20
2013,10,26,02,56,4.80
2013,10,26,02,57,4.80
2013,10,26,02,58,4.80
2013,10,26,02,59,3.20
2013,10,26,03,00,3.20
2013,10,26,03,01,3.20
2013,10,26,03,02,3.20
2013,10,26,03,03,1.60
2013,10,26,03,04,1.60
2013,10,26,03,05,1.60
2013,10,26,03,06,4.80
2013,10,26,03,07,3.20
2013,10,26,03,08,3.20
2013,10,26,03,09,3.20
2013,10,26,03,10,3.20
2013,10,26,03,11,3.20
2013,10,26,03,12,6.40
2013,10,26,03,13,3.20
2013,10,26,03,14,3.20
2013,10,26,03,15,4.80
2013,10,26,03,16,3.20
2013,10,26,03,17,4.80
2013,10,26,03,18,4.80
2013,10,26,03,19,3.20
2013,10,26,03,20,4.80
2013,10,26,03,21,3.20
2013,10,26,03,22,3.20
2013,10,26,03,23,3.20
2013,10,26,03,24,3.20
2013,10,26,03,25,3.20
2013,10,26,03,26,4.80
2013,10,26,03,27,4.80
2013,10,26,03,28,1.60
2013,10,26,03,29,3.20
2013,10,26,03,30,1.60
2013,10,26,03,31,1.60
2013,10,26,03,36,1.60
2013,10,26,03,37,1.60
2013,10,26,03,39,1.60
2013,10,26,03,40,1.60
2013,10,26,03,41,1.60
2013,10,26,03,42,1.60
2013,10,26,03,51,3.20
2013,10,26,03,52,1.60
2013,10,26,03,58,1.60
2013,10,26,04,00,1.60
2013,10,26,04,05,1.60
2013,10,26,04,15,1.60
2013,10,26,04,16,1.60
2013,10,26,04,21,3.20
2013,10,26,04,22,3.20
2013,10,26,04,23,3.20
2013,10,26,04,24,1.60
2013,10,26,06,16,3.20
2013,10,26,06,17,4.80
2013,10,26,06,18,3.20
2013,10,26,06,19,3.20
2013,10,26,06,20,3.20
2013,10,26,06,21,3.20
2013,10,26,06,22,3.20
2013,10,26,06,23,3.20
2013,10,26,06,24,3.20
2013,10,26,06,25,4.80
2013,10,26,06,26,3.20
2013,10,26,06,27,4.80
2013,10,26,06,28,1.60
2013,10,26,06,29,3.20
2013,10,26,06,30,3.20
2013,10,26,06,31,1.60
2013,10,26,06,32,3.20
2013,10,26,06,33,3.20
2013,10,26,06,34,1.60
2013,10,26,06,35,1.60
2013,10,26,06,36,1.60
2013,10,26,06,38,3.20
2013,10,26,06,39,3.20
2013,10,26,06,40,1.60
2013,10,26,06,41,1.60
2013,10,26,06,42,1.60
2013,10,26,06,43,1.60
2013,10,26,06,46,1.60
2013,10,26,06,47,1.60
2013,10,26,06,52,1.60
2013,10,26,06,55,1.60
2013,10,26,07,01,3.20
2013,10,26,07,02,3.20
2013,10,26,07,03,1.60
2013,10,26,07,05,1.60
2013,10,26,07,06,1.60
2013,10,26,07,38,3.20
2013,10,26,07,39,1.60
2013,10,26,07,40,1.60
2013,10,26,07,41,1.60
2013,10,26,07,43,1.60
2013,10,26,07,44,1.60
2013,10,26,07,45,3.20
2013,10,26,07,46,1.60
2013,10,26,07,47,1.60
2013,10,26,07,49,3.20
2013,10,26,07,50,3.20
2013,10,26,07,51,4.80
2013,10,26,07,52,3.20
2013,10,26,07,53,4.80
2013,10,26,07,54,3.20
2013,10,26,07,55,4.80
2013,10,26,07,56,4.80
2013,10,26,07,57,3.20
2013,10,26,07,58,8.10
2013,10,26,07,59,6.40
2013,10,26,08,00,8.10
2013,10,26,08,01,9.60
2013,10,26,08,02,6.40
2013,10,26,08,03,9.60
2013,10,26,08,04,8.10
2013,10,26,08,05,8.10
2013,10,26,08,06,6.40
2013,10,26,08,07,6.40
2013,10,26,08,08,8.10
2013,10,26,08,09,4.80
2013,10,26,08,10,6.40
2013,10,26,08,11,9.60
2013,10,26,08,12,9.60
2013,10,26,08,13,6.40
2013,10,26,08,14,4.80
2013,10,26,08,15,6.40
2013,10,26,08,16,8.10
2013,10,26,08,17,9.60
2013,10,26,08,18,8.10
2013,10,26,08,19,6.40
2013,10,26,08,20,6.40
2013,10,26,08,21,6.40
2013,10,26,08,22,9.60
2013,10,26,08,23,3.20
2013,10,26,08,24,9.60
2013,10,26,08,25,6.40
2013,10,26,08,26,4.80
2013,10,26,08,27,9.60
2013,10,26,08,28,9.60
2013,10,26,08,29,8.10
2013,10,26,08,30,9.60
2013,10,26,08,31,6.40
2013,10,26,08,32,8.10
2013,10,26,08,33,11.30
2013,10,26,08,34,6.40
2013,10,26,08,35,11.30
2013,10,26,08,36,11.30
2013,10,26,08,37,9.60
2013,10,26,08,38,11.30
2013,10,26,08,39,17.70
2013,10,26,08,40,17.70
2013,10,26,08,41,16.10
2013,10,26,08,42,16.10
2013,10,26,08,43,11.30
2013,10,26,08,44,9.60
2013,10,26,08,45,9.60
2013,10,26,08,46,14.50
2013,10,26,08,47,19.30
2013,10,26,08,48,14.50
2013,10,26,08,49,9.60
2013,10,26,08,50,9.60
2013,10,26,08,51,11.30
2013,10,26,08,52,16.10
2013,10,26,08,53,16.10
2013,10,26,08,54,19.30
2013,10,26,08,55,19.30
2013,10,26,08,56,11.30
2013,10,26,08,57,9.60
2013,10,26,08,58,11.30
2013,10,26,08,59,16.10
2013,10,26,09,00,12.90
2013,10,26,09,01,14.50
2013,10,26,09,02,16.10
2013,10,26,09,03,6.40
2013,10,26,09,04,6.40
2013,10,26,09,05,11.30
2013,10,26,09,06,6.40
2013,10,26,09,07,11.30
2013,10,26,09,08,11.30
2013,10,26,09,09,11.30
2013,10,26,09,10,11.30
2013,10,26,09,11,8.10
2013,10,26,09,12,8.10
2013,10,26,09,13,11.30
2013,10,26,09,14,9.60
2013,10,26,09,15,9.60
2013,10,26,09,16,11.30
2013,10,26,09,17,9.60
2013,10,26,09,18,11.30
2013,10,26,09,19,9.60
2013,10,26,09,20,6.40
2013,10,26,09,21,8.10
2013,10,26,09,22,8.10
2013,10,26,09,23,4.80
2013,10,26,09,24,9.60
2013,10,26,09,25,17.70
2013,10,26,09,26,14.50
2013,10,26,09,27,11.30
2013,10,26,09,28,11.30
2013,10,26,09,29,14.50
2013,10,26,09,30,9.60
2013,10,26,09,31,14.50
2013,10,26,09,32,17.70
2013,10,26,09,33,14.50
2013,10,26,09,34,11.30
2013,10,26,09,35,11.30
2013,10,26,09,36,9.60
2013,10,26,09,37,11.30
2013,10,26,09,38,8.10
2013,10,26,09,39,9.60
2013,10,26,09,40,11.30
2013,10,26,09,41,9.60
2013,10,26,09,42,8.10
2013,10,26,09,43,11.30
2013,10,26,09,44,14.50
2013,10,26,09,45,12.90
2013,10,26,09,46,6.40
2013,10,26,09,47,6.40
2013,10,26,09,48,6.40
2013,10,26,09,49,14.50
2013,10,26,09,50,6.40
2013,10,26,09,51,6.40
2013,10,26,09,52,11.30
2013,10,26,09,53,8.10
2013,10,26,09,54,4.80
2013,10,26,09,55,11.30
2013,10,26,09,56,14.50
2013,10,26,09,57,9.60
2013,10,26,09,58,14.50
2013,10,26,09,59,14.50
2013,10,26,10,00,14.50
2013,10,26,10,01,8.10
2013,10,26,10,02,8.10
2013,10,26,10,03,12.90
2013,10,26,10,04,6.40
2013,10,26,10,05,6.40
2013,10,26,10,06,6.40
2013,10,26,10,07,11.30
2013,10,26,10,08,9.60
2013,10,26,10,09,8.10
2013,10,26,10,10,11.30
2013,10,26,10,11,12.90
2013,10,26,10,12,9.60
2013,10,26,10,13,12.90
2013,10,26,10,14,8.10
2013,10,26,10,15,8.10
2013,10,26,10,16,9.60
2013,10,26,10,17,14.50
2013,10,26,10,18,9.60
2013,10,26,10,19,9.60
2013,10,26,10,20,19.30
2013,10,26,10,21,17.70
2013,10,26,10,22,17.70
2013,10,26,10,23,19.30
2013,10,26,10,24,17.70
2013,10,26,10,25,14.50
2013,10,26,10,26,6.40
2013,10,26,10,27,8.10
2013,10,26,10,28,11.30
2013,10,26,10,29,17.70
2013,10,26,10,30,16.10
2013,10,26,10,31,11.30
2013,10,26,10,32,20.90
2013,10,26,10,33,14.50
2013,10,26,10,34,11.30
2013,10,26,10,35,12.90
2013,10,26,10,36,14.50
2013,10,26,10,37,17.70
2013,10,26,10,38,11.30
2013,10,26,10,39,19.30
2013,10,26,10,40,12.90
2013,10,26,10,41,14.50
2013,10,26,10,42,9.60
2013,10,26,10,43,9.60
2013,10,26,10,44,16.10
2013,10,26,10,45,17.70
2013,10,26,10,46,16.10
2013,10,26,10,47,9.60
2013,10,26,10,48,9.60
2013,10,26,10,49,11.30
2013,10,26,10,50,11.30
2013,10,26,10,51,19.30
2013,10,26,10,52,8.10
2013,10,26,10,53,8.10
2013,10,26,10,54,8.10
2013,10,26,10,55,6.40
2013,10,26,10,56,6.40
2013,10,26,10,57,4.80
2013,10,26,10,58,9.60
2013,10,26,10,59,8.10
2013,10,26,11,00,9.60
2013,10,26,11,01,17.70
2013,10,26,11,02,17.70
2013,10,26,11,03,11.30
2013,10,26,11,04,16.10
2013,10,26,11,05,6.40
2013,10,26,11,06,9.60
2013,10,26,11,07,11.30
2013,10,26,11,08,14.50
2013,10,26,11,09,9.60
2013,10,26,11,10,8.10
2013,10,26,11,11,9.60
2013,10,26,11,12,11.30
2013,10,26,11,13,11.30
2013,10,26,11,14,6.40
2013,10,26,11,15,6.40
2013,10,26,11,16,9.60
2013,10,26,11,17,9.60
2013,10,26,11,18,8.10
2013,10,26,11,19,9.60
2013,10,26,11,20,14.50
2013,10,26,11,21,14.50
2013,10,26,11,22,11.30
2013,10,26,11,23,11.30
2013,10,26,11,24,4.80
2013,10,26,11,25,9.60
2013,10,26,11,26,11.30
2013,10,26,11,27,9.60
2013,10,26,11,28,9.60
2013,10,26,11,29,14.50
2013,10,26,11,30,9.60
2013,10,26,11,31,6.40
2013,10,26,11,32,8.10
2013,10,26,11,33,8.10
2013,10,26,11,34,11.30
2013,10,26,11,35,11.30
2013,10,26,11,36,9.60
2013,10,26,11,37,6.40
2013,10,26,11,38,6.40
2013,10,26,11,39,4.80
2013,10,26,11,40,3.20
2013,10,26,11,41,8.10
2013,10,26,11,42,6.40
2013,10,26,11,43,6.40
2013,10,26,11,44,6.40
2013,10,26,11,45,9.60
2013,10,26,11,46,8.10
2013,10,26,11,47,6.40
2013,10,26,11,48,6.40
2013,10,26,11,49,8.10
2013,10,26,11,50,9.60
2013,10,26,11,51,6.40
2013,10,26,11,52,8.10
2013,10,26,11,53,9.60
2013,10,26,11,54,6.40
2013,10,26,11,55,8.10
2013,10,26,11,56,9.60
2013,10,26,11,57,8.10
2013,10,26,11,58,9.60
2013,10,26,11,59,9.60
2013,10,26,12,00,3.20
2013,10,26,12,01,9.60
2013,10,26,12,02,8.10
2013,10,26,12,03,9.60
2013,10,26,12,04,8.10
2013,10,26,12,05,6.40
2013,10,26,12,06,6.40
2013,10,26,12,07,8.10
2013,10,26,12,08,8.10
2013,10,26,12,09,9.60
2013,10,26,12,10,9.60
2013,10,26,12,11,8.10
2013,10,26,12,12,6.40
2013,10,26,12,13,8.10
2013,10,26,12,14,3.20
2013,10,26,12,15,1.60
2013,10,26,12,16,4.80
2013,10,26,12,17,6.40
2013,10,26,12,18,3.20
2013,10,26,12,19,6.40
2013,10,26,12,20,6.40
2013,10,26,12,21,8.10
2013,10,26,12,22,6.40
2013,10,26,12,23,6.40
2013,10,26,12,24,8.10
2013,10,26,12,25,8.10
2013,10,26,12,26,6.40
2013,10,26,12,27,9.60
2013,10,26,12,28,8.10
2013,10,26,12,29,4.80
2013,10,26,12,30,8.10
2013,10,26,12,31,8.10
2013,10,26,12,32,8.10
2013,10,26,12,33,8.10
2013,10,26,12,34,8.10
2013,10,26,12,35,6.40
2013,10,26,12,36,8.10
2013,10,26,12,37,8.10
2013,10,26,12,38,6.40
2013,10,26,12,39,8.10
2013,10,26,12,40,16.10
2013,10,26,12,41,16.10
2013,10,26,12,42,16.10
2013,10,26,12,43,14.50
2013,10,26,12,44,11.30
2013,10,26,12,45,11.30
2013,10,26,12,46,11.30
2013,10,26,12,47,16.10
2013,10,26,12,48,14.50
2013,10,26,12,49,16.10
2013,10,26,12,50,14.50
2013,10,26,12,51,16.10
2013,10,26,12,52,12.90
2013,10,26,12,53,9.60
2013,10,26,12,54,16.10
2013,10,26,12,55,14.50
2013,10,26,12,56,11.30
2013,10,26,12,57,9.60
2013,10,26,12,58,11.30
2013,10,26,12,59,9.60
2013,10,26,13,00,9.60
2013,10,26,13,01,14.50
2013,10,26,13,02,11.30
2013,10,26,13,03,9.60
2013,10,26,13,04,9.60
2013,10,26,13,05,14.50
2013,10,26,13,06,11.30
2013,10,26,13,07,11.30
2013,10,26,13,08,11.30
2013,10,26,13,09,14.50
2013,10,26,13,10,9.60
2013,10,26,13,11,16.10
2013,10,26,13,12,9.60
2013,10,26,13,13,9.60
2013,10,26,13,14,9.60
2013,10,26,13,15,11.30
2013,10,26,13,16,9.60
2013,10,26,13,17,12.90
2013,10,26,13,18,9.60
2013,10,26,13,19,8.10
2013,10,26,13,20,9.60
2013,10,26,13,21,9.60
2013,10,26,13,22,14.50
2013,10,26,13,23,11.30
2013,10,26,13,24,14.50
2013,10,26,13,25,14.50
2013,10,26,13,26,11.30
2013,10,26,13,27,11.30
2013,10,26,13,28,4.80
2013,10,26,13,29,6.40
2013,10,26,13,30,8.10
2013,10,26,13,31,9.60
2013,10,26,13,32,11.30
2013,10,26,13,33,11.30
2013,10,26,13,34,16.10
2013,10,26,13,35,11.30
2013,10,26,13,36,9.60
2013,10,26,13,37,12.90
2013,10,26,13,38,17.70
2013,10,26,13,39,20.90
2013,10,26,13,40,16.10
2013,10,26,13,41,17.70
2013,10,26,13,42,16.10
2013,10,26,13,43,16.10
2013,10,26,13,44,17.70
2013,10,26,13,45,12.90
2013,10,26,13,46,11.30
2013,10,26,13,47,19.30
2013,10,26,13,48,11.30
2013,10,26,13,49,8.10
2013,10,26,13,50,11.30
2013,10,26,13,51,12.90
2013,10,26,13,52,16.10
2013,10,26,13,53,9.60
2013,10,26,13,54,11.30
2013,10,26,13,55,16.10
2013,10,26,13,56,20.90
2013,10,26,13,57,16.10
2013,10,26,13,58,14.50
2013,10,26,13,59,12.90
2013,10,26,14,00,19.30
2013,10,26,14,01,9.60
2013,10,26,14,02,16.10
2013,10,26,14,03,14.50
2013,10,26,14,04,11.30
2013,10,26,14,05,14.50
2013,10,26,14,06,11.30
2013,10,26,14,07,9.60
2013,10,26,14,08,17.70
2013,10,26,14,09,20.90
2013,10,26,14,10,14.50
2013,10,26,14,11,16.10
2013,10,26,14,12,17.70
2013,10,26,14,13,11.30
2013,10,26,14,14,14.50
2013,10,26,14,15,17.70
2013,10,26,14,16,14.50
2013,10,26,14,17,11.30
2013,10,26,14,18,20.90
2013,10,26,14,19,16.10
2013,10,26,14,20,19.30
2013,10,26,14,21,14.50
2013,10,26,14,22,9.60
2013,10,26,14,23,14.50
2013,10,26,14,24,11.30
2013,10,26,14,25,8.10
2013,10,26,14,26,11.30
2013,10,26,14,27,16.10
2013,10,26,14,28,14.50
2013,10,26,14,29,14.50
2013,10,26,14,30,14.50
2013,10,26,14,31,6.40
2013,10,26,14,32,11.30
2013,10,26,14,33,14.50
2013,10,26,14,34,11.30
2013,10,26,14,35,16.10
2013,10,26,14,36,20.90
2013,10,26,14,37,20.90
2013,10,26,14,38,20.90
2013,10,26,14,39,17.70
2013,10,26,14,40,16.10
2013,10,26,14,41,16.10
2013,10,26,14,42,17.70
2013,10,26,14,43,17.70
2013,10,26,14,44,17.70
2013,10,26,14,45,17.70
2013,10,26,14,46,9.60
2013,10,26,14,47,8.10
2013,10,26,14,48,11.30
2013,10,26,14,49,11.30
2013,10,26,14,50,14.50
2013,10,26,14,51,16.10
2013,10,26,14,52,17.70
2013,10,26,14,53,16.10
2013,10,26,14,54,16.10
2013,10,26,14,55,11.30
2013,10,26,14,56,11.30
2013,10,26,14,57,20.90
2013,10,26,14,58,20.90
2013,10,26,14,59,19.30
2013,10,26,15,00,14.50
2013,10,26,15,01,17.70
2013,10,26,15,02,17.70
2013,10,26,15,03,11.30
2013,10,26,15,04,16.10
2013,10,26,15,05,12.90
2013,10,26,15,06,19.30
2013,10,26,15,07,19.30
2013,10,26,15,08,16.10
2013,10,26,15,09,17.70
2013,10,26,15,10,11.30
2013,10,26,15,11,14.50
2013,10,26,15,12,22.50
2013,10,26,15,13,19.30
2013,10,26,15,14,9.60
2013,10,26,15,15,19.30
2013,10,26,15,16,19.30
2013,10,26,15,17,16.10
2013,10,26,15,18,16.10
2013,10,26,15,19,16.10
2013,10,26,15,20,17.70
2013,10,26,15,21,14.50
2013,10,26,15,22,9.60
2013,10,26,15,23,17.70
2013,10,26,15,24,17.70
2013,10,26,15,25,16.10
2013,10,26,15,26,11.30
2013,10,26,15,27,22.50
2013,10,26,15,28,16.10
2013,10,26,15,29,16.10
2013,10,26,15,30,17.70
2013,10,26,15,31,9.60
2013,10,26,15,32,12.90
2013,10,26,15,33,22.50
2013,10,26,15,34,9.60
2013,10,26,15,35,12.90
2013,10,26,15,36,11.30
2013,10,26,15,37,14.50
2013,10,26,15,38,16.10
2013,10,26,15,39,16.10
2013,10,26,15,40,17.70
2013,10,26,15,41,12.90
2013,10,26,15,42,14.50
2013,10,26,15,43,14.50
2013,10,26,15,44,14.50
2013,10,26,15,45,14.50
2013,10,26,15,46,14.50
2013,10,26,15,47,16.10
2013,10,26,15,48,11.30
2013,10,26,15,49,16.10
2013,10,26,15,50,14.50
2013,10,26,15,51,9.60
2013,10,26,15,52,16.10
2013,10,26,15,53,6.40
2013,10,26,15,54,6.40
2013,10,26,15,55,9.60
2013,10,26,15,56,19.30
2013,10,26,15,57,8.10
2013,10,26,15,58,19.30
2013,10,26,15,59,17.70
2013,10,26,16,00,17.70
2013,10,26,16,01,17.70
2013,10,26,16,02,16.10
2013,10,26,16,03,14.50
2013,10,26,16,04,12.90
2013,10,26,16,05,12.90
2013,10,26,16,06,16.10
2013,10,26,16,07,16.10
2013,10,26,16,08,14.50
2013,10,26,16,09,16.10
2013,10,26,16,10,8.10
2013,10,26,16,11,17.70
2013,10,26,16,12,17.70
2013,10,26,16,13,14.50
2013,10,26,16,14,8.10
2013,10,26,16,15,14.50
2013,10,26,16,16,17.70
2013,10,26,16,17,19.30
2013,10,26,16,18,11.30
2013,10,26,16,19,16.10
2013,10,26,16,20,8.10
2013,10,26,16,21,9.60
2013,10,26,16,22,6.40
2013,10,26,16,23,14.50
2013,10,26,16,24,11.30
2013,10,26,16,25,8.10
2013,10,26,16,26,8.10
2013,10,26,16,27,14.50
2013,10,26,16,28,12.90
2013,10,26,16,29,17.70
2013,10,26,16,30,8.10
2013,10,26,16,31,19.30
2013,10,26,16,32,19.30
2013,10,26,16,33,12.90
2013,10,26,16,34,11.30
2013,10,26,16,35,9.60
2013,10,26,16,36,9.60
2013,10,26,16,37,9.60
2013,10,26,16,38,8.10
2013,10,26,16,39,9.60
2013,10,26,16,40,11.30
2013,10,26,16,41,8.10
2013,10,26,16,42,9.60
2013,10,26,16,43,14.50
2013,10,26,16,44,11.30
2013,10,26,16,45,11.30
2013,10,26,16,46,14.50
2013,10,26,16,47,9.60
2013,10,26,16,48,8.10
2013,10,26,16,49,14.50
2013,10,26,16,50,8.10
2013,10,26,16,51,6.40
2013,10,26,16,52,11.30
2013,10,26,16,53,9.60
2013,10,26,16,54,12.90
2013,10,26,16,55,11.30
2013,10,26,16,56,11.30
2013,10,26,16,57,16.10
2013,10,26,16,58,14.50
2013,10,26,16,59,11.30
2013,10,26,17,00,6.40
2013,10,26,17,01,14.50
2013,10,26,17,02,14.50
2013,10,26,17,03,9.60
2013,10,26,17,04,8.10
2013,10,26,17,05,6.40
2013,10,26,17,06,8.10
2013,10,26,17,07,6.40
2013,10,26,17,08,6.40
2013,10,26,17,09,6.40
2013,10,26,17,10,8.10
2013,10,26,17,11,8.10
2013,10,26,17,12,17.70
2013,10,26,17,13,8.10
2013,10,26,17,14,8.10
2013,10,26,17,15,6.40
2013,10,26,17,16,9.60
2013,10,26,17,17,9.60
2013,10,26,17,18,9.60
2013,10,26,17,19,8.10
2013,10,26,17,20,8.10
2013,10,26,17,21,14.50
2013,10,26,17,22,9.60
2013,10,26,17,23,9.60
2013,10,26,17,24,11.30
2013,10,26,17,25,8.10
2013,10,26,17,26,8.10
2013,10,26,17,27,9.60
2013,10,26,17,28,8.10
2013,10,26,17,29,6.40
2013,10,26,17,30,11.30
2013,10,26,17,31,8.10
2013,10,26,17,32,9.60
2013,10,26,17,33,17.70
2013,10,26,17,34,16.10
2013,10,26,17,35,11.30
2013,10,26,17,36,11.30
2013,10,26,17,37,14.50
2013,10,26,17,38,11.30
2013,10,26,17,39,8.10
2013,10,26,17,40,9.60
2013,10,26,17,41,8.10
2013,10,26,17,42,14.50
2013,10,26,17,43,16.10
2013,10,26,17,44,11.30
2013,10,26,17,45,11.30
2013,10,26,17,46,19.30
2013,10,26,17,47,17.70
2013,10,26,17,48,12.90
2013,10,26,17,49,8.10
2013,10,26,17,50,11.30
2013,10,26,17,51,17.70
2013,10,26,17,52,19.30
2013,10,26,17,53,6.40
2013,10,26,17,54,14.50
2013,10,26,17,55,14.50
2013,10,26,17,56,9.60
2013,10,26,17,57,14.50
2013,10,26,17,58,16.10
2013,10,26,17,59,11.30
2013,10,26,18,00,19.30
2013,10,26,18,01,9.60
2013,10,26,18,02,9.60
2013,10,26,18,03,8.10
2013,10,26,18,04,16.10
2013,10,26,18,05,9.60
2013,10,26,18,06,11.30
2013,10,26,18,07,8.10
2013,10,26,18,08,9.60
2013,10,26,18,09,17.70
2013,10,26,18,10,14.50
2013,10,26,18,11,9.60
2013,10,26,18,12,8.10
2013,10,26,18,13,16.10
2013,10,26,18,14,14.50
2013,10,26,18,15,12.90
2013,10,26,18,16,9.60
2013,10,26,18,17,11.30
2013,10,26,18,18,11.30
2013,10,26,18,19,11.30
2013,10,26,18,20,16.10
2013,10,26,18,21,8.10
2013,10,26,18,22,11.30
2013,10,26,18,23,11.30
2013,10,26,18,24,14.50
2013,10,26,18,25,14.50
2013,10,26,18,26,8.10
2013,10,26,18,27,19.30
2013,10,26,18,28,16.10
2013,10,26,18,29,9.60
2013,10,26,18,30,11.30
2013,10,26,18,31,9.60
2013,10,26,18,32,11.30
2013,10,26,18,33,14.50
2013,10,26,18,34,16.10
2013,10,26,18,35,9.60
2013,10,26,18,36,11.30
2013,10,26,18,37,17.70
2013,10,26,18,38,14.50
2013,10,26,18,39,14.50
2013,10,26,18,40,4.80
2013,10,26,18,41,14.50
2013,10,26,18,42,16.10
2013,10,26,18,43,14.50
2013,10,26,18,44,11.30
2013,10,26,18,45,9.60
2013,10,26,18,46,9.60
2013,10,26,18,47,14.50
2013,10,26,18,48,16.10
2013,10,26,18,49,16.10
2013,10,26,18,50,9.60
2013,10,26,18,51,11.30
2013,10,26,18,52,6.40
2013,10,26,18,53,9.60
2013,10,26,18,54,8.10
2013,10,26,18,55,6.40
2013,10,26,18,56,11.30
2013,10,26,18,57,11.30
2013,10,26,18,58,11.30
2013,10,26,18,59,9.60
2013,10,26,19,00,14.50
2013,10,26,19,01,11.30
2013,10,26,19,02,16.10
2013,10,26,19,03,11.30
2013,10,26,19,04,8.10
2013,10,26,19,05,9.60
2013,10,26,19,06,6.40
2013,10,26,19,07,8.10
2013,10,26,19,08,17.70
2013,10,26,19,09,9.60
2013,10,26,19,10,16.10
2013,10,26,19,11,14.50
2013,10,26,19,12,8.10
2013,10,26,19,13,9.60
2013,10,26,19,14,11.30
2013,10,26,19,15,14.50
2013,10,26,19,16,12.90
2013,10,26,19,17,14.50
2013,10,26,19,18,16.10
2013,10,26,19,19,20.90
2013,10,26,19,20,9.60
2013,10,26,19,21,9.60
2013,10,26,19,22,8.10
2013,10,26,19,23,11.30
2013,10,26,19,24,6.40
2013,10,26,19,25,11.30
2013,10,26,19,26,9.60
2013,10,26,19,27,3.20
2013,10,26,19,28,6.40
2013,10,26,19,29,9.60
2013,10,26,19,30,8.10
2013,10,26,19,31,12.90
2013,10,26,19,32,11.30
2013,10,26,19,33,12.90
2013,10,26,19,34,12.90
2013,10,26,19,35,8.10
2013,10,26,19,36,17.70
2013,10,26,19,37,9.60
2013,10,26,19,38,16.10
2013,10,26,19,39,6.40
2013,10,26,19,40,8.10
2013,10,26,19,41,12.90
2013,10,26,19,42,8.10
2013,10,26,19,43,11.30
2013,10,26,19,44,14.50
2013,10,26,19,45,19.30
2013,10,26,19,46,17.70
2013,10,26,19,47,17.70
2013,10,26,19,48,19.30
2013,10,26,19,49,17.70
2013,10,26,19,50,20.90
2013,10,26,19,51,19.30
2013,10,26,19,52,16.10
2013,10,26,19,53,9.60
2013,10,26,19,54,16.10
2013,10,26,19,55,8.10
2013,10,26,19,56,17.70
2013,10,26,19,57,19.30
2013,10,26,19,58,16.10
2013,10,26,19,59,16.10
2013,10,26,20,00,16.10
2013,10,26,20,01,16.10
2013,10,26,20,02,16.10
2013,10,26,20,03,14.50
2013,10,26,20,04,11.30
2013,10,26,20,05,11.30
2013,10,26,20,06,8.10
2013,10,26,20,07,8.10
2013,10,26,20,08,11.30
2013,10,26,20,09,16.10
2013,10,26,20,10,16.10
2013,10,26,20,11,11.30
2013,10,26,20,12,6.40
2013,10,26,20,13,16.10
2013,10,26,20,14,17.70
2013,10,26,20,15,11.30
2013,10,26,20,16,11.30
2013,10,26,20,17,6.40
2013,10,26,20,18,4.80
2013,10,26,20,19,4.80
2013,10,26,20,20,9.60
2013,10,26,20,21,11.30
2013,10,26,20,22,9.60
2013,10,26,20,23,9.60
2013,10,26,20,24,17.70
2013,10,26,20,25,12.90
2013,10,26,20,26,19.30
2013,10,26,20,27,16.10
2013,10,26,20,28,14.50
2013,10,26,20,29,14.50
2013,10,26,20,30,11.30
2013,10,26,20,31,8.10
2013,10,26,20,32,8.10
2013,10,26,20,33,9.60
2013,10,26,20,34,14.50
2013,10,26,20,35,8.10
2013,10,26,20,36,12.90
2013,10,26,20,37,9.60
2013,10,26,20,38,8.10
2013,10,26,20,39,11.30
2013,10,26,20,40,14.50
2013,10,26,20,41,16.10
2013,10,26,20,42,14.50
2013,10,26,20,43,14.50
2013,10,26,20,44,14.50
2013,10,26,20,45,8.10
2013,10,26,20,46,6.40
2013,10,26,20,47,19.30
2013,10,26,20,48,11.30
2013,10,26,20,49,17.70
2013,10,26,20,50,6.40
2013,10,26,20,51,11.30
2013,10,26,20,52,12.90
2013,10,26,20,53,14.50
2013,10,26,20,54,14.50
2013,10,26,20,55,9.60
2013,10,26,20,56,6.40
2013,10,26,20,57,9.60
2013,10,26,20,58,16.10
2013,10,26,20,59,9.60
2013,10,26,21,00,9.60
2013,10,26,21,01,11.30
2013,10,26,21,02,11.30
2013,10,26,21,03,14.50
2013,10,26,21,04,16.10
2013,10,26,21,05,14.50
2013,10,26,21,06,17.70
2013,10,26,21,07,8.10
2013,10,26,21,08,11.30
2013,10,26,21,09,9.60
2013,10,26,21,10,16.10
2013,10,26,21,11,14.50